Location: *
(43.7000°S, 168.7000°W)
Time: 14:54:00
(UTC+00:00)

Okean O Rocket - Pass Details

Date: 07 July 2020
Orbit: 623 x 645 km, 98.2° (Epoch: 04 August)

Event Time Altitude Azimuth Distance (km) Brightness Sun altitude
Rises 17:28:21 0° 336° (NNW) 2,934 5.0 -13.9°
Reaches altitude 10° 17:31:05 10° 318° (NW) 2,040 4.0 -13.4°
Maximum altitude 17:34:16 19° 272° (W) 1,541 3.0 -12.8°
Enters shadow 17:35:00 18° 260° (W) 1,575 3.0 -12.7°
